EW2972 Weather Reports


Display with metric or nautical units.
time (UTC)temp
F
wind
direction
speed
MPH
gust
MPH
rain 1hr
in
rain 24hr
in
rain mn
in
humidity
%
barometer
mb
20180923060225 71 304 3.0 9.0 1.40 3.43 1.40 100 1011.7
20180923055725 71 351 4.0 10.0 1.25 3.28 1.25 100 1011.7
20180923055206 72 288 3.0 11.0 1.09 3.08 1.05 100 1011.6
20180923054706 72 207 4.0 11.0 0.87 2.86 0.83 100 1011.9
20180923054208 73 328 3.0 11.0 0.63 2.62 0.59 100 1011.6
20180923053720 74 333 2.0 6.0 0.38 2.37 0.34 100 1011.3
20180923053205 75 245 2.0 6.0 0.15 2.14 0.11 100 1011.3
20180923052708 75 209 1.0 6.0 0.05 2.04 0.01 100 1011.1
20180923052232 75 237 1.0 6.0 0.05 2.04 0.01 100 1011.2
20180923051733 75 307 2.0 6.0 0.05 2.04 0.01 100 1011.1
20180923051228 76 300 2.0 6.0 0.05 2.04 0.01 100 1011.1
20180923050732 76 269 2.0 4.0 0.05 2.04 0.01 100 1011.2
20180923050234 76 321 1.0 4.0 0.04 2.03 2.03 100 1011.3
20180923045733 76 308 0.0 2.0 0.03 2.02 2.02 100 1011.3
20180923045206 76 221 0.0 1.0 0.00 1.99 1.99 100 1011.3
20180923044726 76 120 0.0 1.0 0.00 1.99 1.99 100 1011.3
20180923044231 76 120 0.0 1.0 0.00 1.99 1.99 100 1011.3
20180923043708 76 120 0.0 1.0 0.00 1.99 1.99 100 1011.4
20180923043208 76 120 0.0 0.0 0.00 1.99 1.99 100 1011.4
20180923042705 76 120 0.0 1.0 0.00 1.99 1.99 100 1011.5
20180923042208 76 120 0.0 1.0 0.00 1.99 1.99 100 1011.6
20180923041726 76 120 0.0 1.0 0.00 1.99 1.99 100 1011.6
20180923041208 76 120 0.0 1.0 0.00 1.99 1.99 100 1011.7
20180923040723 76 120 0.0 1.0 0.00 1.99 1.99 100 1011.7
20180923040206 75 120 0.0 1.0 0.00 1.99 1.99 100 1011.7
20180923035724 75 120 0.0 1.0 0.00 1.99 1.99 100 1011.7
20180923035205 75 120 0.0 1.0 0.00 1.99 1.99 100 1011.7
20180923034710 75 120 0.0 2.0 0.00 1.99 1.99 100 1011.7
20180923034206 75 120 0.0 2.0 0.00 1.99 1.99 100 1011.7
20180923033706 75 95 0.0 2.0 0.00 1.99 1.99 100 1011.7
20180923033232 75 95 0.0 1.0 0.00 1.99 1.99 100 1011.7
20180923032706 75 127 0.0 1.0 0.00 1.99 1.99 100 1011.7
20180923032221 75 127 0.0 2.0 0.00 1.99 1.99 100 1011.7
20180923031710 75 127 0.0 2.0 0.00 1.99 1.99 100 1011.8
20180923031224 75 127 0.0 2.0 0.00 1.99 1.99 100 1011.8
20180923030705 75 122 0.0 2.0 0.00 1.99 1.99 100 1011.8
20180923030209 75 124 1.0 2.0 0.00 1.99 1.99 100 1011.8
20180923025725 75 101 1.0 2.0 0.00 1.99 1.99 100 1011.7
20180923025206 75 120 1.0 2.0 0.00 1.99 1.99 100 1011.7
20180923024723 75 139 0.0 2.0 0.00 1.99 1.99 100 1011.7
20180923024206 75 102 0.0 1.0 0.00 1.99 1.99 100 1011.7
20180923023706 75 89 0.0 1.0 0.00 1.99 1.99 100 1011.6
20180923023222 75 89 0.0 1.0 0.00 1.99 1.99 100 1011.5
20180923022706 75 89 0.0 0.0 0.00 1.99 1.99 100 1011.6
20180923022208 75 89 0.0 1.0 0.00 1.99 1.99 100 1011.5
20180923021708 75 89 0.0 1.0 0.00 1.99 1.99 100 1011.5
20180923021208 74 89 0.0 1.0 0.00 1.99 1.99 100 1011.5
20180923020708 74 89 0.0 0.0 0.00 1.99 1.99 100 1011.4
20180923020208 74 89 0.0 1.0 0.00 1.99 1.99 100 1011.3
20180923015706 74 89 0.0 2.0 0.00 1.99 1.99 100 1011.2
20180923015210 75 89 0.0 2.0 0.00 1.99 1.99 100 1011.1
20180923014722 74 89 0.0 2.0 0.00 1.99 1.99 100 1011.1
20180923014221 74 135 0.0 1.0 0.00 1.99 1.99 100 1011.1
20180923013731 75 131 0.0 1.0 0.00 1.99 1.99 100 1011.0
20180923013207 75 131 0.0 1.0 0.00 1.99 1.99 100 1011.0
20180923012706 75 131 0.0 1.0 0.00 1.99 1.99 100 1010.9
20180923012234 75 131 0.0 2.0 0.00 1.99 1.99 100 1010.8
20180923011709 75 131 0.0 2.0 0.00 1.99 1.99 100 1010.8
20180923011221 75 131 0.0 3.0 0.00 1.99 1.99 100 1010.7
20180923010708 75 191 1.0 3.0 0.00 1.99 1.99 100 1010.6
20180923010226 75 120 1.0 4.0 0.00 1.99 1.99 100 1010.6
20180923005706 75 89 1.0 4.0 0.00 1.99 1.99 100 1010.7
20180923005225 75 124 2.0 4.0 0.00 1.99 1.99 100 1010.7
20180923004705 75 160 2.0 4.0 0.00 1.99 1.99 100 1010.7
20180923004224 75 122 2.0 4.0 0.00 1.99 1.99 100 1010.7
20180923003706 75 118 2.0 4.0 0.00 1.99 1.99 100 1010.7
20180923003230 75 111 1.0 4.0 0.00 1.99 1.99 100 1010.8
20180923002709 75 117 1.0 3.0 0.00 1.99 1.99 100 1010.8
20180923002221 75 111 1.0 2.0 0.00 1.99 1.99 100 1010.9
20180923001708 75 130 1.0 2.0 0.00 1.99 1.99 100 1010.9
20180923001209 75 87 1.0 2.0 0.00 1.99 1.99 100 1010.8
20180923000729 75 122 1.0 3.0 0.00 1.99 1.99 100 1010.8
20180923000205 75 124 1.0 3.0 0.00 1.99 1.99 100 1011.0
20180922235732 74 132 0.0 3.0 0.00 1.99 1.99 100 1011.0
20180922235207 75 110 0.0 2.0 0.01 1.99 1.99 100 1011.0
20180922234711 74 94 1.0 4.0 0.01 1.99 1.99 100 1011.0
20180922234229 74 136 1.0 4.0 0.01 1.99 1.99 100 1011.0
20180922233708 74 101 1.0 4.0 0.01 1.99 1.99 100 1010.9
20180922233206 74 127 1.0 3.0 0.01 1.99 1.99 100 1010.9
20180922232710 74 117 2.0 5.0 0.01 2.00 1.99 100 1010.9
20180922232208 74 120 2.0 5.0 0.01 2.00 1.99 100 1011.0
20180922231707 74 128 2.0 5.0 0.02 2.01 1.99 100 1011.0
20180922231208 74 101 2.0 4.0 0.02 2.01 1.99 100 1011.1
20180922230725 74 139 2.0 5.0 0.02 2.01 1.99 100 1011.0
20180922230205 74 149 2.0 5.0 0.02 2.02 1.99 100 1011.1
20180922225709 74 132 2.0 5.0 0.03 2.02 1.99 100 1011.1
20180922225205 74 132 2.0 3.0 0.02 2.01 1.98 100 1011.1
20180922224709 74 105 1.0 3.0 0.03 2.01 1.98 100 1011.1
20180922224205 74 93 1.0 3.0 0.04 2.02 1.98 100 1011.0
20180922223711 74 164 1.0 3.0 0.05 2.02 1.98 100 1011.0
20180922223234 74 112 1.0 2.0 0.06 2.03 1.98 100 1010.9
20180922222729 74 127 1.0 3.0 0.07 2.03 1.98 100 1010.9
20180922222208 74 96 0.0 3.0 0.08 2.03 1.98 100 1010.9
20180922221729 74 127 1.0 3.0 0.08 2.03 1.97 100 1010.8
20180922221235 74 122 1.0 3.0 0.08 2.03 1.97 100 1010.8
20180922220730 74 77 1.0 3.0 0.09 2.03 1.97 100 1010.7
20180922220231 74 102 1.0 3.0 0.09 2.03 1.97 100 1010.8
20180922215706 74 125 1.0 3.0 0.09 2.02 1.96 100 1010.8
20180922215230 74 125 1.0 3.0 0.10 2.03 1.96 100 1010.8
20180922214726 74 151 1.0 3.0 0.11 2.02 1.95 100 1011.0
20180922214208 74 147 1.0 3.0 0.11 2.02 1.94 100 1011.0
20180922213709 74 137 1.0 3.0 0.11 2.01 1.93 100 1011.1
20180922213208 74 126 1.0 4.0 0.10 2.00 1.92 100 1011.0
20180922212708 74 126 2.0 4.0 0.10 1.99 1.91 100 1011.0
20180922212224 74 131 2.0 4.0 0.09 1.98 1.90 100 1010.9
20180922211708 74 141 1.0 3.0 0.09 1.97 1.89 100 1010.9
20180922211241 74 129 0.0 2.0 0.09 1.96 1.88 100 1010.8
20180922210706 74 127 0.0 2.0 0.11 1.96 1.88 100 1010.9
20180922210208 74 138 0.0 3.0 0.21 1.96 1.88 100 1011.0
20180922205709 74 127 0.0 6.0 0.25 1.95 1.87 100 1011.1
20180922205231 74 127 1.0 7.0 0.25 1.94 1.86 100 1011.3
20180922204723 74 150 2.0 7.0 0.25 1.92 1.84 100 1011.5
20180922204226 74 142 3.0 7.0 0.32 1.91 1.83 100 1011.5
20180922203733 74 209 2.0 6.0 0.41 1.91 1.82 100 1011.4
20180922203235 74 177 0.0 3.0 0.43 1.93 1.82 100 1011.4
20180922202708 74 175 0.0 3.0 0.42 1.95 1.81 100 1011.1
20180922202211 74 174 1.0 5.0 0.43 1.99 1.81 100 1011.3
20180922201708 74 174 2.0 9.0 0.48 2.02 1.80 100 1011.6
20180922201235 74 173 3.0 10.0 0.52 2.09 1.79 100 1011.4
20180922200709 73 152 5.0 12.0 0.75 2.19 1.77 100 1011.3
20180922200229 74 118 7.0 12.0 0.98 2.13 1.67 100 1011.4
20180922195707 75 155 6.0 12.0 1.32 2.11 1.62 100 1011.8
20180922195220 75 143 4.0 9.0 1.58 2.10 1.61 100 1012.1
20180922194707 75 165 1.0 3.0 1.59 2.08 1.59 100 1011.9
20180922194209 75 181 0.0 2.0 1.49 1.98 1.49 100 1011.7
20180922193708 75 160 0.0 1.0 1.41 1.90 1.41 100 1011.6
20180922193206 75 160 0.0 1.0 1.39 1.88 1.39 100 1011.8
20180922192727 75 57 0.0 4.0 1.39 1.88 1.39 100 1011.8
20180922192208 74 58 1.0 5.0 1.38 1.87 1.38 100 1011.8
20180922191709 74 62 2.0 5.0 1.32 1.81 1.32 100 1011.7
20180922191227 74 118 1.0 5.0 1.25 1.74 1.25 99 1011.8
20180922190708 74 328 1.0 15.0 1.00 1.49 0.98 98 1011.9
20180922190208 75 307 2.0 15.0 0.66 1.15 0.66 97 1012.1
20180922185709 77 0 2.0 15.0 0.30 0.77 0.28 95 1012.6
20180922185213 79 219 2.0 8.0 0.03 0.52 0.03 92 1012.3
20180922184732 79 357 2.0 8.0 0.00 0.49 0.00 90 1012.2
20180922184205 79 205 2.0 7.0 0.00 0.49 0.00 92 1011.9
20180922183708 79 326 3.0 7.0 0.00 0.49 0.00 91 1012.0
20180922183207 80 279 2.0 6.0 0.00 0.49 0.00 90 1012.1
20180922182705 80 288 2.0 6.0 0.00 0.49 0.00 89 1012.2
20180922182209 80 324 2.0 8.0 0.00 0.49 0.00 88 1012.1
20180922181223 82 317 3.0 8.0 0.00 0.49 0.00 85 1012.0
20180922180735 84 309 3.0 8.0 0.00 0.49 0.00 82 1012.1
20180922180226 85 318 3.0 8.0 0.00 0.49 0.00 81 1012.2
20180922175709 86 199 3.0 8.0 0.00 0.49 0.00 83 1011.9
20180922175205 86 203 3.0 10.0 0.00 0.49 0.00 83 1011.9
20180922174706 87 193 5.0 10.0 0.00 0.49 0.00 83 1012.1
20180922174224 86 164 5.0 10.0 0.00 0.49 0.00 84 1012.0
20180922173707 86 155 5.0 11.0 0.00 0.49 0.00 83 1011.8
20180922173220 86 118 5.0 11.0 0.00 0.49 0.00 84 1011.9
20180922172733 86 123 5.0 11.0 0.00 0.49 0.00 86 1011.8
20180922172228 86 124 4.0 9.0 0.00 0.49 0.00 86 1011.8
20180922171732 85 89 4.0 9.0 0.00 0.49 0.00 86 1011.8
20180922171228 85 74 4.0 9.0 0.00 0.49 0.00 86 1012.0
20180922170705 85 106 5.0 8.0 0.00 0.49 0.00 86 1012.2
20180922170209 85 137 4.0 8.0 0.00 0.49 0.00 86 1012.3
20180922165728 85 180 4.0 9.0 0.00 0.49 0.00 86 1012.4
20180922165205 85 150 4.0 9.0 0.00 0.49 0.00 86 1012.4
20180922164709 85 198 4.0 9.0 0.00 0.49 0.00 85 1012.4
20180922164206 85 202 4.0 8.0 0.00 0.49 0.00 87 1012.4
20180922163708 85 187 4.0 6.0 0.00 0.49 0.00 87 1012.4
20180922163210 84 170 3.0 7.0 0.00 0.49 0.00 88 1012.4
20180922162709 84 79 3.0 7.0 0.00 0.49 0.00 88 1012.2
20180922162209 84 158 3.0 7.0 0.00 0.49 0.00 89 1012.4
20180922161729 83 174 3.0 5.0 0.00 0.49 0.00 90 1012.4
20180922161233 83 158 2.0 6.0 0.00 0.49 0.00 91 1012.3
20180922160723 82 171 2.0 6.0 0.00 0.49 0.00 92 1012.4
20180922160226 82 197 3.0 10.0 0.00 0.49 0.00 91 1012.5
20180922155727 82 193 3.0 10.0 0.00 0.49 0.00 91 1012.4
20180922155228 82 152 4.0 10.0 0.00 0.49 0.00 90 1012.5
20180922154723 83 131 4.0 7.0 0.00 0.49 0.00 89 1012.6
20180922154209 83 115 4.0 8.0 0.00 0.49 0.00 91 1012.5
20180922153728 84 149 4.0 8.0 0.00 0.49 0.00 90 1012.4
20180922153230 84 143 3.0 8.0 0.00 0.49 0.00 92 1012.5
20180922152729 84 222 2.0 8.0 0.00 0.49 0.00 92 1012.5
20180922152225 84 193 1.0 7.0 0.00 0.49 0.00 93 1012.5
20180922151735 83 169 2.0 7.0 0.00 0.49 0.00 93 1012.5
20180922151227 83 167 2.0 7.0 0.00 0.49 0.00 93 1012.4
20180922150708 83 203 2.0 5.0 0.00 0.49 0.00 94 1012.4
20180922150208 83 146 1.0 6.0 0.00 0.49 0.00 96 1012.4
20180922145707 83 203 2.0 6.0 0.00 0.49 0.00 96 1012.4
20180922145209 82 196 3.0 7.0 0.00 0.49 0.00 96 1012.5
20180922144710 82 136 3.0 7.0 0.00 0.49 0.00 97 1012.5
20180922144233 82 203 3.0 7.0 0.00 0.49 0.00 97 1012.5
20180922143709 82 169 3.0 6.0 0.00 0.49 0.00 98 1012.5
20180922143226 82 184 3.0 7.0 0.00 0.49 0.00 98 1012.7
20180922142708 82 180 4.0 7.0 0.00 0.49 0.00 99 1012.6
20180922142231 82 143 3.0 7.0 0.00 0.49 0.00 99 1012.5
20180922141733 82 112 3.0 7.0 0.00 0.49 0.00 99 1012.5
20180922141208 81 169 3.0 6.0 0.00 0.49 0.00 100 1012.5
20180922140709 81 179 2.0 6.0 0.00 0.49 0.00 100 1012.5
20180922140206 81 141 2.0 4.0 0.00 0.49 0.00 100 1012.4
20180922135709 81 160 2.0 3.0 0.00 0.49 0.00 100 1012.4
20180922135229 81 165 2.0 3.0 0.00 0.49 0.00 100 1012.5
20180922134706 81 103 1.0 3.0 0.00 0.49 0.00 100 1012.5
20180922134207 81 117 1.0 3.0 0.00 0.49 0.00 100 1012.4
20180922133709 80 148 1.0 3.0 0.00 0.49 0.00 100 1012.3
20180922133206 80 164 1.0 3.0 0.00 0.49 0.00 100 1012.4
20180922132707 80 156 0.0 2.0 0.00 0.49 0.00 100 1012.3
20180922132232 80 176 1.0 3.0 0.00 0.49 0.00 100 1012.3
20180922131727 80 177 1.0 4.0 0.00 0.49 0.00 100 1012.4
20180922131227 80 162 2.0 4.0 0.00 0.49 0.00 100 1012.5
20180922130706 80 149 1.0 4.0 0.00 0.49 0.00 100 1012.5
20180922130209 80 171 1.0 3.0 0.00 0.49 0.00 100 1012.4
20180922125706 79 104 1.0 3.0 0.00 0.49 0.00 100 1012.3
20180922125207 79 124 1.0 3.0 0.00 0.49 0.00 100 1012.2
20180922124728 79 132 1.0 3.0 0.00 0.49 0.00 100 1012.1
20180922124227 79 154 1.0 2.0 0.00 0.49 0.00 100 1012.0
20180922123733 79 164 0.0 1.0 0.00 0.49 0.00 100 1012.0
20180922123207 79 129 0.0 1.0 0.00 0.49 0.00 100 1012.0
20180922122708 79 117 0.0 1.0 0.00 0.49 0.00 100 1012.0
20180922122209 79 117 0.0 1.0 0.00 0.49 0.00 100 1012.1
20180922121728 79 117 0.0 1.0 0.00 0.49 0.00 100 1012.1
20180922121230 79 127 0.0 1.0 0.00 0.49 0.00 100 1012.0
20180922120706 79 120 0.0 1.0 0.00 0.49 0.00 100 1012.0
20180922120232 79 120 0.0 1.0 0.00 0.49 0.00 100 1012.0
20180922115706 79 120 0.0 1.0 0.00 0.49 0.00 100 1011.9
20180922115234 79 120 0.0 1.0 0.00 0.49 0.00 100 1011.9
20180922114727 79 120 0.0 1.0 0.00 0.49 0.00 100 1011.9
20180922114221 79 120 0.0 1.0 0.00 0.49 0.00 100 1011.9
20180922113707 79 120 0.0 1.0 0.00 0.50 0.00 100 1011.9
20180922113206 79 120 0.0 1.0 0.00 0.50 0.00 100 1011.8
20180922112709 79 120 0.0 1.0 0.00 0.51 0.00 100 1011.8
20180922112208 79 120 0.0 1.0 0.00 0.51 0.00 100 1011.8
20180922111734 79 120 0.0 1.0 0.00 0.51 0.00 100 1011.8
20180922111223 79 120 0.0 2.0 0.00 0.51 0.00 100 1011.8
20180922110730 79 120 0.0 2.0 0.00 0.51 0.00 100 1011.8
20180922110209 79 120 0.0 2.0 0.00 0.51 0.00 100 1011.7
20180922105707 79 115 0.0 2.0 0.00 0.51 0.00 100 1011.7
20180922105231 79 128 0.0 1.0 0.00 0.51 0.00 100 1011.8
20180922104706 79 120 0.0 2.0 0.00 0.51 0.00 100 1011.8
20180922104226 79 126 1.0 2.0 0.00 0.51 0.00 100 1011.8
20180922103713 79 122 0.0 2.0 0.00 0.51 0.00 100 1011.8
20180922103229 78 154 0.0 1.0 0.00 0.51 0.00 100 1011.7
20180922102708 78 123 0.0 0.0 0.00 0.51 0.00 100 1011.6
20180922101708 78 123 0.0 1.0 0.00 0.51 0.00 100 1011.6
20180922101205 78 123 0.0 1.0 0.00 0.51 0.00 100 1011.6
20180922100708 78 123 0.0 1.0 0.00 0.51 0.00 100 1011.4
20180922100224 78 123 0.0 1.0 0.00 0.51 0.00 100 1011.4
20180922095725 78 123 0.0 1.0 0.00 0.51 0.00 100 1011.3
20180922095234 79 123 0.0 1.0 0.00 0.51 0.00 100 1011.5
20180922094726 78 123 0.0 2.0 0.00 0.51 0.00 100 1011.6
20180922094235 78 123 0.0 2.0 0.00 0.51 0.00 100 1011.5
20180922093707 78 124 0.0 2.0 0.00 0.51 0.00 100 1011.6
20180922093232 78 125 0.0 2.0 0.00 0.51 0.00 100 1011.6
20180922092731 78 126 0.0 3.0 0.00 0.51 0.00 100 1011.6
20180922092216 78 134 1.0 3.0 0.00 0.51 0.00 100 1011.7
20180922091206 78 135 1.0 2.0 0.00 0.51 0.00 100 1011.7
20180922090706 78 115 1.0 2.0 0.00 0.51 0.00 100 1011.7
20180922090228 78 114 1.0 2.0 0.00 0.51 0.00 100 1011.7
20180922085721 78 148 0.0 1.0 0.00 0.51 0.00 100 1011.7
20180922085205 78 155 0.0 1.0 0.00 0.51 0.00 100 1011.6
20180922084710 78 155 0.0 1.0 0.00 0.51 0.00 100 1011.6
20180922084217 78 126 0.0 1.0 0.00 0.51 0.00 100 1011.6
20180922083706 78 126 0.0 1.0 0.00 0.51 0.00 100 1011.7
20180922083231 78 135 0.0 1.0 0.00 0.51 0.00 100 1011.7
20180922082735 78 149 0.0 1.0 0.00 0.51 0.00 100 1011.8
20180922082233 78 148 0.0 1.0 0.00 0.51 0.00 100 1011.7
20180922081727 78 148 1.0 1.0 0.00 0.51 0.00 100 1011.7
20180922081206 78 149 1.0 1.0 0.00 0.51 0.00 100 1011.8
20180922080706 78 150 1.0 2.0 0.00 0.51 0.00 100 1011.9
20180922080208 78 160 0.0 2.0 0.00 0.51 0.00 100 1011.9
20180922075723 78 176 0.0 2.0 0.00 0.51 0.00 100 1011.9
20180922075208 78 176 1.0 2.0 0.00 0.51 0.00 100 1011.9
20180922074711 78 153 1.0 2.0 0.00 0.51 0.00 100 1011.9
20180922074208 78 170 1.0 2.0 0.00 0.51 0.00 100 1012.0
20180922073710 79 178 1.0 2.0 0.00 0.51 0.00 100 1012.0
20180922073207 79 167 1.0 3.0 0.00 0.51 0.00 100 1011.9
20180922072712 79 134 1.0 4.0 0.00 0.51 0.00 100 1012.0
20180922072205 79 150 1.0 4.0 0.00 0.51 0.00 100 1011.9
20180922071709 79 130 1.0 4.0 0.00 0.51 0.00 100 1011.9
20180922071206 79 132 2.0 4.0 0.00 0.51 0.00 100 1012.0
20180922070725 78 100 2.0 4.0 0.00 0.51 0.00 100 1012.1
20180922070208 78 115 2.0 4.0 0.00 0.51 0.00 100 1012.2
20180922065713 78 118 2.0 4.0 0.00 0.51 0.00 100 1012.2
20180922065221 78 124 1.0 4.0 0.00 0.51 0.00 100 1012.3
20180922064708 78 134 1.0 2.0 0.00 0.51 0.00 100 1012.4
20180922064208 78 109 1.0 2.0 0.00 0.51 0.00 100 1012.4
20180922063708 78 127 1.0 2.0 0.00 0.51 0.00 100 1012.4
20180922063206 78 113 1.0 2.0 0.00 0.51 0.00 100 1012.6
20180922062709 78 127 1.0 2.0 0.00 0.51 0.00 100 1012.7
20180922062206 78 87 1.0 2.0 0.00 0.51 0.00 100 1012.8
20180922061709 78 128 1.0 2.0 0.00 0.51 0.00 100 1012.8
20180922061207 78 109 1.0 2.0 0.00 0.51 0.00 100 1012.9
20180922060706 78 162 1.0 2.0 0.00 0.51 0.00 100 1013.0